Florala, AL

4:45 AM CST on February 25, 2017 (GMT -0600)
Florala

Weather History for K0J4 - October, 2012

Change the Weather History Date:

Monday, October 8, 2012

  Actual Average (KCEW) Record (KCEW)
Temperature  
Mean Temperature 64 °F -  
Max Temperature 75 °F 81 °F 91 °F (1949)
Min Temperature 53 °F 56 °F 35 °F (1991)
Degree Days  
Heating Degree Days 1    
Growing Degree Days 14 (Base 50)    
Moisture  
Dew Point 53 °F    
Average Humidity 71    
Maximum Humidity 90    
Minimum Humidity 50    
Precipitation  
Precipitation 0.00 in - - ()
Sea Level Pressure  
Sea Level Pressure 30.08 in    
Wind  
Wind Speed 4 mph (North)    
Max Wind Speed 9 mph    
Max Gust Speed -    
Visibility 10 miles    
Events      
Averages and records for this station are not official NWS values.
T = Trace of Precipitation, MM = Missing Value Source: NWS Daily Summary

Daily Weather History Graph

Daily Weather History Graph

Search for Another Location

Airport or City:

Trip Planner

Search our weather history database for the weather conditions in past years. The results will help you decide how hot, cold, wet, or windy it might be!

Date:

Astronomy

Oct. 08, 2012 Rise Set
Actual Time 6:43 AM CDT 6:21 PM CDT
Civil Twilight 6:19 AM CDT 6:45 PM CDT
Nautical Twilight 5:51 AM CDT 7:13 PM CDT
Astronomical Twilight 5:23 AM CDT 7:41 PM CDT
Moon No Moon Rise 1:46 PM CDT (10/8)
Length of Visible Light 12h 26m
Length of Day
11h 37m
Last Quarter, 46% of the Moon is Illuminated
Oct 8
Last Quarter
Oct 15
New
Oct 21
First Quarter
Oct 29
Full
Nov 6
Last Quarter

Hourly Weather History & Observations

Time (CDT) Temp. Dew Point Humidity Pressure Visibility Wind Dir Wind Speed Gust Speed Precip Events Conditions
12:58 AM 57.0 °F 53.1 °F 87% 30.08 in 10.0 mi North 3.5 mph - N/A   Clear
1:58 AM 55.0 °F 52.0 °F 89% 30.07 in 10.0 mi North 3.5 mph - N/A   Clear
2:58 AM 54.0 °F 51.1 °F 90% 30.06 in 10.0 mi North 4.6 mph - N/A   Clear
3:58 AM 54.0 °F 50.0 °F 86% 30.06 in 10.0 mi North 4.6 mph - N/A   Clear
4:58 AM 54.0 °F 50.0 °F 86% 30.06 in 10.0 mi Calm Calm - N/A   Clear
5:58 AM 53.1 °F 50.0 °F 89% 30.06 in 10.0 mi North 3.5 mph - N/A   Clear
6:58 AM 53.1 °F 50.0 °F 89% 30.08 in 10.0 mi Calm Calm - N/A   Partly Cloudy
7:58 AM 57.0 °F 50.0 °F 77% 30.10 in 10.0 mi North 3.5 mph - N/A   Clear
8:58 AM 62.1 °F 52.0 °F 70% 30.11 in 10.0 mi NNE 6.9 mph - N/A   Mostly Cloudy
9:58 AM 66.0 °F 53.1 °F 63% 30.13 in 10.0 mi Variable 5.8 mph - N/A   Partly Cloudy
10:58 AM 69.1 °F 54.0 °F 58% 30.12 in 10.0 mi Variable 4.6 mph - N/A   Partly Cloudy
11:58 AM 72.0 °F 55.0 °F 55% 30.09 in 10.0 mi Variable 5.8 mph - N/A   Partly Cloudy
12:58 PM 73.9 °F 55.0 °F 52% 30.08 in 10.0 mi Calm Calm - N/A   Clear
1:58 PM 75.0 °F 55.0 °F 50% 30.05 in 10.0 mi NNE 9.2 mph - N/A   Clear
2:58 PM 75.9 °F 55.9 °F 50% 30.04 in 10.0 mi North 6.9 mph - N/A   Clear
3:58 PM 75.9 °F 55.9 °F 50% 30.03 in 10.0 mi North 3.5 mph - N/A   Clear
4:58 PM 73.9 °F 55.0 °F 52% 30.04 in 10.0 mi North 6.9 mph - N/A   Clear
5:58 PM 70.0 °F 55.9 °F 61% 30.06 in 10.0 mi North 3.5 mph - N/A   Clear
6:58 PM 66.0 °F 55.9 °F 70% 30.07 in 10.0 mi North 3.5 mph - N/A   Clear
7:58 PM 64.0 °F 55.0 °F 73% 30.09 in 10.0 mi North 4.6 mph - N/A   Clear
8:58 PM 62.1 °F 54.0 °F 75% 30.10 in 10.0 mi North 3.5 mph - N/A   Clear
9:58 PM 60.1 °F 53.1 °F 78% 30.11 in 10.0 mi NNW 3.5 mph - N/A   Clear
10:58 PM 59.0 °F 52.0 °F 78% 30.11 in 10.0 mi Calm Calm - N/A   Clear
11:58 PM 57.0 °F 52.0 °F 83% 30.11 in 10.0 mi North 4.6 mph - N/A   Clear